BEIDOU-3 IGSO-1 (44204 NORAD) Tracking and Keplerian Element Data

This shows tracking and keplerian element data for the satellite.

Feedback or suggestion? Click here.




ElementValue
Catalog44204
NameBEIDOU-3 IGSO-1
Epoch Orbit49
Epoch Day145.69910436
Epoch Year2019
RAAN65.2306
Inclination54.9484
Eccentricity0.0016014
Argument of Perigee183.6972
Mean Anonmoly358.2252
Mean Motion1.00295307
Decay Rate-2.18E-06
L11 44204U 19023A 19145.69910436 -.00000218 00000-0 10000-3 0 9993
L22 44204 54.9484 65.2306 0016014 183.6972 358.2252 1.00295307 497

Live tracking and technical data element details for BEIDOU-3 IGSO-1 (NORAD 44204). BEIDOU-3 IGSO-1 can be tracked NOW for your location showing map with azimuth and elevation plus other details from your city location.

Track the satellite on the map from your city or location and see movement details for azimuth, elevation, latitude, longitude, range, height, and movement on the map or in text.







IsCatalogInMostPopularTable: catalog: 44204, numindb: 16
Update: records affected: 1



GetName: 44204 BEIDOU-3 IGSO-1

Hit Count: updated at: Sun, 26 May 2019 07:27:16 GMT